FW9818 Weather Reports


time (UTC)temp
F
wind
direction
speed
knots
gust
knots
rain 1hr
in
rain 24hr
in
rain mn
in
humidity
%
barometer
mb
20260506203007 51 29 1.7 4.3 0.00 0.07 0.04 68 1011.5
20260506201553 51 39 2.6 6.1 0.00 0.07 0.04 69 1011.4
20260506200132 51 45 0.9 3.5 0.00 0.07 0.04 70 1011.3
20260506194629 51 46 0.9 3.5 0.00 0.07 0.04 70 1011.3
20260506193124 51 46 1.7 7.8 0.00 0.07 0.04 70 1011.2
20260506191621 51 89 2.6 4.3 0.00 0.07 0.04 69 1011.0
20260506190120 51 347 2.6 9.6 0.00 0.07 0.04 68 1010.8
20260506184609 52 335 3.5 7.8 0.00 0.08 0.04 66 1010.6
20260506183110 53 85 3.5 8.7 0.00 0.08 0.04 65 1010.5
20260506181600 53 13 3.5 7.8 0.00 0.08 0.04 63 1010.3
20260506180015 54 28 7.0 11.3 0.00 0.08 0.04 60 1010.1
20260506174546 54 299 3.5 8.7 0.00 0.08 0.04 61 1009.8
20260506173138 54 18 3.5 9.6 0.00 0.08 0.04 58 1009.6
20260506171502 55 42 2.6 9.6 0.00 0.08 0.04 58 1009.4
20260506170128 56 4 7.0 11.3 0.00 0.08 0.04 55 1009.2
20260506164611 57 13 5.2 8.7 0.00 0.08 0.04 57 1009.0
20260506163116 57 331 5.2 10.4 0.00 0.08 0.04 58 1008.9
20260506161605 57 303 5.2 10.4 0.00 0.08 0.04 60 1008.9
20260506154622 57 56 4.3 9.6 0.00 0.09 0.04 60 1008.7
20260506153124 58 35 3.5 8.7 0.00 0.09 0.04 60 1008.8
20260506151612 58 23 3.5 7.0 0.00 0.09 0.04 58 1008.7
20260506150106 57 140 3.5 11.3 0.00 0.09 0.04 58 1008.6
20260506144608 57 33 5.2 12.2 0.00 0.09 0.04 56 1008.6
20260506143110 58 4 3.5 8.7 0.00 0.09 0.04 56 1008.5
20260506141554 58 48 2.6 11.3 0.00 0.09 0.04 58 1008.6
20260506140007 59 27 4.3 9.6 0.00 0.09 0.04 59 1008.6
20260506134628 59 323 4.3 9.6 0.00 0.09 0.04 59 1008.5
20260506133129 58 52 3.5 7.0 0.00 0.09 0.04 62 1008.5
20260506131617 58 323 0.9 7.0 0.00 0.09 0.04 63 1008.5
20260506130118 57 345 2.6 5.2 0.00 0.09 0.04 66 1008.5
20260506124606 56 27 2.6 7.8 0.00 0.09 0.04 67 1008.5
20260506123116 56 341 2.6 9.6 0.00 0.09 0.04 66 1008.5
20260506121610 56 18 3.5 6.1 0.00 0.09 0.04 67 1008.5
20260506120122 56 330 4.3 7.0 0.00 0.09 0.04 68 1008.4
20260506114607 55 344 4.3 8.7 0.00 0.09 0.04 68 1008.4
20260506113100 55 348 5.2 7.8 0.00 0.09 0.04 68 1008.3
20260506111518 56 352 5.2 11.3 0.00 0.09 0.04 67 1008.3
20260506110137 56 337 3.5 11.3 0.00 0.09 0.04 69 1008.3
20260506104623 56 23 4.3 8.7 0.00 0.09 0.04 73 1008.5
20260506103131 54 331 5.2 7.8 0.00 0.09 0.04 77 1008.4
20260506101611 53 39 3.5 6.1 0.00 0.09 0.04 81 1008.4
20260506094624 52 328 2.6 7.8 0.00 0.09 0.04 86 1008.4
20260506093119 51 323 4.3 8.7 0.00 0.09 0.04 88 1008.3
20260506091609 50 335 4.3 7.8 0.00 0.09 0.04 88 1008.3
20260506090033 50 343 2.6 5.2 0.00 0.09 0.04 88 1008.2
20260506084614 50 339 1.7 5.2 0.00 0.09 0.04 88 1008.2
20260506083051 49 319 3.5 6.1 0.00 0.09 0.04 88 1008.1
20260506081510 49 310 0.9 5.2 0.00 0.09 0.04 88 1008.0
20260506080142 48 308 3.5 7.0 0.00 0.09 0.04 88 1008.0
20260506073127 48 13 3.5 8.7 0.00 0.09 0.04 87 1007.9
20260506071616 48 342 3.5 7.0 0.00 0.09 0.04 87 1007.7
20260506070117 48 333 2.6 8.7 0.00 0.09 0.04 87 1007.8
20260506061559 48 337 1.7 7.0 0.00 0.09 0.04 86 1007.6
20260506050138 47 342 3.5 7.0 0.01 0.09 0.04 86 1007.3
20260506044621 47 327 4.3 9.6 0.00 0.08 0.03 85 1007.4
20260506043119 47 352 3.5 7.0 0.00 0.08 0.03 85 1007.4
20260506041614 47 339 2.6 7.0 0.00 0.08 0.03 85 1007.3
20260506040003 47 347 2.6 7.8 0.00 0.08 0.03 85 1007.3
20260506034625 47 18 2.6 6.1 0.00 0.08 0.03 85 1007.4
20260506033132 47 338 2.6 7.0 0.00 0.08 0.03 85 1007.4
20260506031621 47 338 1.7 3.5 0.01 0.08 0.03 85 1007.5
20260506030124 47 359 1.7 5.2 0.01 0.08 0.03 85 1007.5
20260506024610 48 355 0.9 4.3 0.01 0.08 0.03 85 1007.6
20260506023116 48 341 2.6 7.8 0.01 0.08 0.03 85 1007.7
20260506021610 48 349 3.5 7.8 0.00 0.07 0.02 85 1007.7
20260506020112 48 359 1.7 4.3 0.00 0.07 0.02 86 1007.7
20260506014601 48 352 2.6 5.2 0.00 0.07 0.02 86 1007.7
20260506013106 48 352 2.6 7.0 0.00 0.07 0.02 86 1007.8
20260506011605 48 358 3.5 7.8 0.00 0.07 0.02 86 1007.8
20260506010055 48 13 1.7 4.3 0.00 0.07 0.02 86 1007.9
20260506004557 48 341 1.7 4.3 0.00 0.08 0.02 86 1008.0
20260506003013 48 2 2.6 4.3 0.01 0.08 0.02 86 1008.1
20260506001543 48 349 2.6 5.2 0.01 0.08 0.02 86 1008.2
20260506000140 49 356 2.6 6.1 0.01 0.08 0.02 86 1008.2
20260505234625 49 13 3.5 5.2 0.01 0.10 0.02 87 1008.3
20260505233130 49 358 1.7 3.5 0.01 0.09 0.02 87 1008.3
20260505231626 49 13 1.7 4.3 0.01 0.09 0.02 87 1008.4
20260505230130 49 27 0.9 6.1 0.02 0.09 0.02 87 1008.5
20260505224613 49 35 1.7 5.2 0.02 0.18 0.02 87 1008.5
20260505223110 50 55 3.5 7.0 0.02 0.17 0.01 87 1008.6
20260505221605 50 350 2.6 4.3 0.02 0.17 0.01 87 1008.6
20260505214623 51 351 0.9 1.7 0.02 0.17 0.16 88 1008.7
20260505213114 51 48 0.0 1.7 0.02 0.16 0.15 88 1008.7
20260505211613 51 13 0.9 2.6 0.02 0.16 0.15 87 1008.7
20260505210106 51 23 0.9 2.6 0.01 0.15 0.14 88 1008.8
20260505204558 51 359 0.9 2.6 0.01 0.16 0.14 88 1008.8